Wind_Speed
33 34 35 35 36 36 37 37 38 38 39 39 39 39 38 39 39 40 40 40 40 40 40 39 39 40 40 41 42 42 43 43 42 42 42 42 42 42 42 41 41 41 42
33 34 35 36 36 36 37 37 37 37 38 38 39 38 38 39 39 40 40 40 40 40 39 39 39 39 39 40 40 41 41 41 41 41 41 41 41 41 42 41 41 41 41
34 34 34 35 35 35 36 36 36 36 36 37 38 38 38 39 39 39 39 39 39 39 39 39 40 40 39 40 40 40 40 40 40 40 40 40 40 40 40 40 40 40 40
34 33 34 34 34 35 35 35 35 35 36 37 37 37 38 38 38 38 39 39 40 39 39 40 40 41 41 41 41 40 40 40 40 40 40 40 40 39 39 39 39 39 39
33 33 33 33 34 34 34 35 35 35 36 36 37 37 38 38 38 38 39 40 40 40 40 40 41 41 41 40 40 39 39 40 40 40 39 39 38 38 38 37 37 37 38
32 33 33 34 34 34 35 35 35 35 35 36 36 36 37 38 38 39 39 39 40 40 40 40 40 40 39 39 39 39 39 39 39 39 38 38 37 37 37 37 37 37 36
32 33 34 34 34 35 35 36 35 35 35 35 35 36 37 38 38 38 39 39 39 38 38 38 38 38 37 37 37 37 37 37 36 37 37 37 37 37 37 36 36 36 36
32 33 33 34 34 35 35 35 35 35 35 35 36 37 37 37 37 37 37 37 36 36 36 36 36 36 36 35 35 35 35 35 35 35 36 36 36 36 36 35 35 35 35
32 33 33 34 34 34 34 34 34 35 35 36 36 36 36 36 35 35 35 35 35 34 34 34 34 34 34 33 33 33 33 34 34 35 36 35 34 34 34 34 33 33 33
32 32 32 33 33 33 34 34 35 35 35 36 35 35 36 35 35 35 35 35 34 33 33 33 33 32 32 32 32 32 33 34 34 35 35 34 33 33 33 32 32 32 32
32 32 32 32 32 33 33 34 34 34 35 35 35 34 34 34 34 34 33 33 33 33 33 32 32 31 31 32 32 31 32 32 33 33 33 33 32 32 31 31 31 31 31
32 32 32 32 32 32 32 33 34 34 34 34 34 33 33 33 33 33 33 33 32 32 31 31 31 30 30 31 30 30 30 31 31 32 32 32 32 31 31 31 30 30 29
33 33 32 33 33 33 33 33 33 34 34 34 33 33 33 33 32 32 32 31 31 30 30 30 30 30 30 30 30 30 30 30 30 31 30 30 30 30 30 30 29 28 28
33 33 33 33 33 32 32 33 33 33 34 34 33 33 33 32 31 31 31 30 30 30 29 29 30 30 29 29 29 29 29 29 29 29 29 28 28 28 28 28 27 26 26
32 33 33 32 32 31 31 32 31 31 31 31 32 31 31 30 30 30 29 30 30 30 30 30 30 29 29 28 28 28 28 28 28 27 27 27 26 26 26 26 26 25 25
30 30 30 31 31 31 30 30 29 30 30 30 31 30 30 30 29 29 29 28 29 29 29 29 28 28 27 27 27 27 27 26 26 26 25 25 25 25 25 25 25 25 24
29 29 29 29 29 29 29 29 29 30 30 30 30 30 29 29 28 28 27 27 28 28 27 27 27 27 27 27 26 26 26 25 24 25 24 24 24 23 23 23 23 22 22
27 28 28 28 28 28 28 29 29 29 29 28 28 28 27 27 27 27 27 27 27 27 27 27 26 26 26 26 26 25 25 24 24 23 23 23 23 22 22 21 21 21 20
26 26 27 27 27 27 27 28 28 28 27 27 26 26 26 26 26 26 26 26 26 26 26 25 25 25 25 25 25 24 24 23 23 22 22 22 22 21 20 20 20 20 20
25 25 25 26 26 26 26 26 26 26 25 25 24 25 25 25 25 25 25 24 24 24 24 23 23 23 23 23 23 22 21 21 21 21 21 20 20 20 19 19 19 19 20
23 23 24 24 24 25 25 25 25 24 24 24 24 24 24 24 24 23 23 23 22 22 22 22 21 21 21 21 21 20 19 19 20 19 19 18 18 18 18 18 18 18 18
22 23 23 23 23 23 23 23 23 23 22 22 22 22 23 23 22 22 22 22 22 21 21 20 20 20 19 18 18 18 18 17 18 17 17 17 17 16 16 16 16 17 17
22 22 22 22 22 22 22 22 22 21 21 21 21 21 22 22 22 21 21 21 20 20 20 19 19 18 18 17 16 16 16 16 16 16 15 15 16 16 16 16 16 16 16
21 20 21 21 21 21 21 21 21 20 21 21 21 20 20 20 20 21 21 20 20 20 19 19 18 18 17 16 15 15 15 15 15 15 15 15 15 16 16 16 16 16 15
20 20 20 20 20 20 20 20 20 20 20 20 20 20 20 19 20 20 20 20 19 19 18 18 18 17 17 16 15 14 14 14 14 15 15 15 15 15 15 15 14 14 14
19 19 20 20 20 19 19 19 19 20 20 20 20 19 19 20 19 19 19 18 18 17 17 17 17 17 17 16 15 14 14 14 14 15 15 14 14 14 13 13 13 13 13
Wind_Direction
259 260 261 262 263 263 263 264 265 267 269 270 269 269 270 271 271 272 272 273 274 276 276 277 278 279 279 277 276 276 276 276 276 276 275 275 276 276 275 273 272 272 273
260 261 263 264 264 265 265 265 266 268 269 270 270 270 270 271 272 272 272 272 274 275 277 277 279 281 280 278 277 276 276 276 276 275 275 276 276 276 276 274 273 273 274
261 262 263 264 264 264 265 266 266 267 269 270 270 270 271 273 273 273 273 273 274 276 277 278 279 281 280 279 278 277 276 276 276 275 274 275 277 277 277 276 275 274 275
261 262 263 264 264 264 264 265 267 268 269 270 270 270 271 272 273 274 274 274 275 276 276 278 279 280 280 279 278 277 275 275 275 275 274 275 276 278 278 276 276 276 276
260 261 262 264 264 264 264 266 268 270 271 271 271 271 271 273 274 275 275 275 276 276 277 278 279 280 280 278 277 277 276 276 275 275 275 276 276 276 276 276 276 276 276
261 262 263 264 264 264 264 266 268 271 272 273 272 273 274 275 275 277 277 277 276 276 277 278 279 280 280 278 277 276 276 276 276 275 275 275 276 277 276 275 274 274 274
263 264 264 265 265 264 265 266 268 270 272 274 274 274 275 275 276 277 277 278 277 276 277 278 279 280 279 278 276 276 276 275 275 276 275 275 276 275 276 275 275 275 275
263 265 266 266 266 266 266 267 269 271 273 274 275 275 276 276 275 277 278 277 277 277 277 278 280 280 280 278 276 275 274 274 275 275 276 277 276 275 274 274 273 274 274
264 265 267 268 268 267 267 268 270 272 274 275 276 276 276 276 275 276 277 277 276 276 278 279 280 280 279 277 276 274 273 274 275 275 277 277 276 274 274 273 272 273 273
265 266 268 269 270 269 268 269 271 273 275 276 277 276 276 276 275 275 276 277 276 277 279 280 279 279 278 277 276 275 274 275 275 275 274 275 275 274 273 273 274 274 274
265 266 269 270 270 270 270 271 272 274 275 277 277 276 276 276 275 275 276 276 275 277 280 280 279 279 278 277 277 277 277 276 275 274 274 274 274 273 272 273 275 276 276
266 267 269 270 271 272 272 273 273 274 275 277 277 276 275 276 275 275 276 276 276 278 279 279 279 278 278 278 278 279 280 278 277 275 274 274 273 272 271 273 275 276 276
265 266 268 269 271 272 273 273 273 274 275 275 275 275 274 275 274 273 274 275 277 279 279 278 278 279 279 278 278 280 281 281 278 276 275 273 272 271 271 272 274 276 276
266 266 267 268 270 271 272 274 275 274 273 273 274 274 274 273 273 273 274 275 276 278 279 279 279 279 279 279 279 280 281 282 280 277 274 273 273 271 270 270 271 273 274
265 267 267 268 270 271 272 274 274 273 272 273 274 274 274 274 272 273 274 274 275 276 277 278 278 278 279 279 280 281 282 282 280 277 275 273 272 271 270 270 270 271 272
266 267 267 267 269 270 271 272 273 272 273 273 274 274 275 274 272 273 274 275 276 275 275 276 277 276 276 278 280 281 282 280 279 276 273 272 272 271 270 270 270 270 270
268 268 267 267 268 269 271 271 272 273 273 273 274 274 274 274 273 273 274 275 275 275 275 277 277 276 276 277 278 279 278 277 276 275 272 272 273 272 271 271 269 268 268
269 268 267 267 268 269 270 271 273 273 273 272 272 272 273 273 273 274 274 275 276 276 276 277 277 276 277 277 276 276 275 274 274 273 273 272 272 272 272 270 268 267 267
269 268 267 267 268 269 271 273 274 273 273 273 272 272 273 274 274 276 276 277 276 276 277 278 277 277 277 277 274 273 273 273 272 273 272 272 270 271 271 269 267 266 266
268 268 269 269 270 270 272 273 272 273 274 273 272 272 272 274 276 278 278 277 277 278 278 278 277 277 278 276 273 272 272 272 273 273 272 270 267 269 270 268 267 267 267
269 270 270 270 269 271 271 272 272 273 272 271 271 272 272 273 275 277 276 277 278 279 279 278 277 277 277 274 272 269 270 271 272 272 271 268 268 269 268 267 267 267 266
268 270 270 270 270 269 269 271 273 273 272 272 272 272 272 273 274 275 276 277 277 278 279 278 276 276 276 274 271 268 269 270 270 270 266 265 268 267 266 268 268 265 265
269 269 269 269 269 268 269 270 272 272 271 272 273 273 272 272 273 275 276 277 277 278 278 276 274 273 272 271 269 269 267 267 267 266 262 262 264 266 267 267 266 263 264
267 267 269 270 269 269 270 271 272 271 270 272 274 273 271 270 271 274 276 277 277 277 275 273 272 270 269 269 269 269 267 267 265 262 260 260 263 265 267 267 266 265 266
265 266 268 268 269 270 270 270 269 269 271 272 272 270 270 270 272 274 276 276 276 275 272 270 268 267 267 267 268 266 264 266 265 263 261 261 264 265 265 264 265 267 270
264 266 266 267 269 269 269 269 269 270 272 273 271 269 269 271 274 275 275 275 275 273 270 268 267 266 265 263 264 263 263 265 264 263 263 264 266 266 266 266 267 268 268
Height
5634 5634 5635 5635 5636 5636 5637 5637 5637 5637 5637 5637 5636 5636 5635 5635 5634 5633 5632 5631 5630 5629 5627 5626 5624 5623 5621 5619 5617 5616 5615 5614 5613 5613 5611 5610 5608 5607 5606 5606 5605 5604 5604
5624 5625 5625 5625 5626 5626 5626 5626 5627 5627 5626 5626 5625 5625 5624 5624 5623 5622 5621 5620 5619 5618 5617 5615 5614 5612 5610 5608 5606 5605 5603 5602 5602 5602 5600 5598 5597 5596 5595 5595 5594 5593 5592
5614 5615 5615 5615 5616 5616 5616 5616 5616 5616 5616 5615 5614 5614 5613 5613 5612 5611 5610 5609 5608 5607 5606 5604 5603 5601 5599 5597 5595 5594 5592 5591 5590 5590 5589 5588 5586 5585 5584 5583 5583 5582 5581
5604 5605 5605 5606 5606 5606 5606 5606 5606 5606 5605 5604 5603 5603 5602 5602 5601 5600 5599 5598 5597 5596 5595 5593 5592 5590 5588 5586 5584 5583 5581 5580 5579 5578 5578 5577 5576 5574 5573 5573 5572 5571 5570
5595 5595 5595 5596 5596 5596 5596 5596 5596 5595 5595 5594 5593 5592 5591 5591 5590 5589 5588 5587 5586 5585 5583 5582 5580 5578 5576 5574 5573 5571 5570 5569 5568 5567 5567 5566 5565 5564 5563 5562 5562 5561 5560
5585 5586 5586 5586 5586 5586 5586 5586 5586 5585 5585 5584 5583 5582 5581 5580 5579 5578 5576 5575 5574 5573 5572 5570 5569 5566 5564 5563 5562 5561 5559 5558 5557 5556 5556 5555 5555 5554 5553 5552 5551 5551 5551
5576 5576 5576 5576 5576 5576 5576 5576 5576 5575 5575 5574 5573 5572 5571 5570 5568 5566 5565 5564 5563 5562 5561 5559 5557 5555 5553 5552 5551 5549 5548 5547 5547 5546 5545 5545 5544 5544 5543 5542 5541 5540 5540
5566 5566 5566 5566 5566 5566 5566 5566 5566 5565 5565 5564 5563 5561 5560 5559 5557 5555 5554 5553 5552 5551 5550 5548 5547 5545 5543 5541 5540 5539 5538 5537 5536 5535 5535 5535 5533 5532 5532 5531 5530 5530 5529
5556 5556 5556 5556 5556 5556 5556 5556 5556 5555 5554 5554 5552 5551 5550 5548 5547 5545 5544 5543 5542 5541 5539 5538 5536 5534 5533 5531 5530 5529 5528 5527 5525 5524 5524 5523 5522 5521 5521 5520 5520 5519 5519
5547 5547 5547 5546 5546 5546 5546 5546 5546 5545 5544 5543 5542 5541 5539 5538 5537 5535 5534 5533 5532 5531 5529 5528 5526 5524 5522 5520 5519 5518 5518 5517 5515 5514 5513 5512 5512 5511 5510 5510 5510 5509 5509
5537 5537 5537 5537 5537 5536 5536 5536 5535 5535 5534 5533 5532 5530 5529 5528 5526 5525 5524 5523 5522 5521 5519 5518 5516 5514 5512 5511 5509 5508 5507 5506 5505 5503 5503 5502 5501 5501 5501 5500 5500 5500 5499
5528 5528 5528 5528 5527 5527 5526 5526 5525 5524 5524 5522 5521 5520 5519 5518 5517 5516 5514 5513 5512 5511 5510 5508 5507 5505 5503 5502 5500 5499 5497 5496 5494 5493 5493 5492 5492 5492 5492 5492 5491 5490 5490
5518 5518 5518 5518 5518 5517 5517 5516 5515 5514 5513 5512 5511 5510 5509 5508 5507 5506 5505 5504 5503 5502 5500 5499 5497 5496 5494 5493 5491 5489 5488 5486 5485 5484 5483 5483 5483 5483 5483 5483 5483 5482 5481
5508 5508 5508 5508 5508 5507 5507 5506 5505 5504 5503 5502 5501 5500 5499 5499 5497 5496 5495 5494 5493 5492 5491 5489 5488 5486 5485 5484 5482 5481 5479 5477 5476 5475 5475 5475 5474 5474 5474 5474 5474 5474 5474
5498 5498 5498 5498 5498 5498 5497 5496 5495 5494 5493 5492 5491 5490 5489 5489 5488 5486 5485 5484 5483 5482 5481 5480 5479 5478 5477 5475 5474 5472 5471 5469 5468 5468 5467 5467 5466 5466 5466 5466 5466 5466 5466
5488 5488 5488 5488 5488 5488 5488 5487 5486 5485 5484 5483 5482 5481 5480 5479 5478 5477 5476 5475 5474 5473 5472 5471 5470 5469 5468 5467 5466 5465 5463 5462 5461 5460 5460 5460 5459 5459 5459 5459 5458 5459 5459
5478 5478 5478 5478 5478 5478 5478 5477 5477 5476 5475 5474 5473 5472 5471 5470 5469 5468 5467 5466 5465 5464 5463 5462 5461 5460 5459 5458 5457 5457 5456 5455 5454 5453 5453 5452 5452 5452 5452 5451 5451 5452 5452
5468 5468 5469 5469 5469 5469 5468 5468 5467 5466 5466 5465 5464 5463 5462 5461 5460 5459 5458 5457 5457 5455 5454 5453 5453 5452 5451 5450 5449 5449 5448 5447 5447 5446 5446 5445 5445 5445 5445 5445 5445 5445 5445
5459 5459 5460 5460 5460 5459 5459 5459 5458 5457 5456 5456 5455 5454 5453 5452 5451 5451 5450 5449 5448 5447 5446 5445 5444 5443 5442 5442 5441 5440 5440 5440 5440 5439 5439 5439 5438 5438 5438 5439 5439 5439 5440
5451 5451 5451 5451 5451 5451 5450 5450 5449 5448 5448 5447 5446 5446 5445 5444 5444 5443 5442 5441 5440 5439 5438 5437 5436 5435 5435 5434 5433 5433 5433 5433 5433 5432 5432 5432 5432 5432 5432 5433 5433 5434 5434
5442 5443 5443 5442 5442 5442 5442 5441 5441 5440 5440 5439 5439 5438 5437 5437 5436 5435 5434 5434 5433 5432 5431 5430 5429 5428 5428 5427 5426 5426 5426 5426 5426 5426 5426 5426 5426 5427 5427 5427 5427 5427 5428
5435 5435 5434 5434 5434 5434 5434 5433 5433 5432 5432 5432 5431 5431 5430 5430 5429 5428 5427 5427 5426 5425 5424 5423 5423 5422 5421 5421 5421 5420 5420 5420 5420 5420 5420 5421 5421 5421 5421 5422 5422 5422 5422
5427 5427 5427 5427 5426 5426 5426 5426 5425 5425 5425 5425 5424 5424 5423 5423 5422 5421 5421 5420 5419 5418 5417 5417 5416 5416 5416 5415 5415 5415 5415 5415 5415 5415 5416 5416 5416 5417 5417 5417 5417 5417 5417
5419 5419 5419 5419 5419 5419 5419 5419 5419 5419 5418 5418 5417 5417 5417 5416 5415 5415 5414 5413 5413 5412 5411 5411 5411 5411 5410 5410 5410 5410 5410 5411 5411 5411 5411 5411 5411 5412 5412 5412 5412 5412 5412
5412 5413 5413 5413 5413 5412 5412 5412 5412 5412 5412 5411 5411 5410 5410 5409 5409 5408 5407 5407 5406 5406 5405 5405 5405 5405 5405 5406 5405 5406 5406 5406 5406 5407 5407 5407 5407 5407 5407 5407 5407 5407 5407
5406 5406 5406 5406 5406 5406 5406 5406 5405 5405 5405 5404 5404 5404 5403 5403 5403 5402 5401 5401 5400 5400 5400 5400 5400 5400 5401 5401 5401 5401 5401 5402 5402 5402 5402 5403 5403 5403 5402 5402 5403 5403 5403